Year,Month,Day,Hour,Minute,Value (Times are PST for temperature in C)
2014,03,05,00,00,3.60
2014,03,05,00,01,3.60
2014,03,05,00,02,3.60
2014,03,05,00,03,3.60
2014,03,05,00,04,3.60
2014,03,05,00,05,3.60
2014,03,05,00,06,3.60
2014,03,05,00,07,3.60
2014,03,05,00,08,3.60
2014,03,05,00,09,3.60
2014,03,05,00,10,3.60
2014,03,05,00,11,3.60
2014,03,05,00,12,3.60
2014,03,05,00,13,3.60
2014,03,05,00,14,3.60
2014,03,05,00,15,3.60
2014,03,05,00,16,3.60
2014,03,05,00,17,3.60
2014,03,05,00,18,3.60
2014,03,05,00,19,3.60
2014,03,05,00,20,3.60
2014,03,05,00,21,3.60
2014,03,05,00,22,3.60
2014,03,05,00,23,3.60
2014,03,05,00,24,3.60
2014,03,05,00,25,3.60
2014,03,05,00,26,3.60
2014,03,05,00,27,3.60
2014,03,05,00,28,3.60
2014,03,05,00,29,3.60
2014,03,05,00,30,3.60
2014,03,05,00,31,3.60
2014,03,05,00,32,3.70
2014,03,05,00,33,3.70
2014,03,05,00,34,3.70
2014,03,05,00,35,3.70
2014,03,05,00,36,3.70
2014,03,05,00,37,3.70
2014,03,05,00,38,3.70
2014,03,05,00,39,3.70
2014,03,05,00,40,3.70
2014,03,05,00,41,3.70
2014,03,05,00,42,3.70
2014,03,05,00,43,3.70
2014,03,05,00,44,3.70
2014,03,05,00,45,3.70
2014,03,05,00,46,3.70
2014,03,05,00,47,3.70
2014,03,05,00,48,3.70
2014,03,05,00,49,3.70
2014,03,05,00,50,3.70
2014,03,05,00,51,3.70
2014,03,05,00,52,3.70
2014,03,05,00,53,3.70
2014,03,05,00,54,3.70
2014,03,05,00,55,3.70
2014,03,05,00,56,3.70
2014,03,05,00,57,3.70
2014,03,05,00,58,3.70
2014,03,05,00,59,3.70
2014,03,05,01,00,3.70
2014,03,05,01,01,3.70
2014,03,05,01,02,3.70
2014,03,05,01,03,3.70
2014,03,05,01,04,3.70
2014,03,05,01,05,3.70
2014,03,05,01,06,3.80
2014,03,05,01,07,3.80
2014,03,05,01,08,3.80
2014,03,05,01,09,3.80
2014,03,05,01,10,3.80
2014,03,05,01,11,3.80
2014,03,05,01,12,3.80
2014,03,05,01,13,3.80
2014,03,05,01,14,3.80
2014,03,05,01,15,3.80
2014,03,05,01,16,3.80
2014,03,05,01,17,3.80
2014,03,05,01,18,3.80
2014,03,05,01,19,3.80
2014,03,05,01,20,3.80
2014,03,05,01,21,3.80
2014,03,05,01,22,3.80
2014,03,05,01,23,3.80
2014,03,05,01,24,3.80
2014,03,05,01,25,3.80
2014,03,05,01,26,3.80
2014,03,05,01,27,3.80
2014,03,05,01,28,3.80
2014,03,05,01,29,3.80
2014,03,05,01,30,3.70
2014,03,05,01,31,3.70
2014,03,05,01,32,3.70
2014,03,05,01,33,3.80
2014,03,05,01,34,3.80
2014,03,05,01,35,3.80
2014,03,05,01,36,3.80
2014,03,05,01,37,3.80
2014,03,05,01,38,3.80
2014,03,05,01,39,3.80
2014,03,05,01,40,3.80
2014,03,05,01,41,3.80
2014,03,05,01,42,3.80
2014,03,05,01,43,3.80
2014,03,05,01,44,3.80
2014,03,05,01,45,3.80
2014,03,05,01,46,3.80
2014,03,05,01,47,3.80
2014,03,05,01,48,3.80
2014,03,05,01,49,3.90
2014,03,05,01,50,3.90
2014,03,05,01,51,3.90
2014,03,05,01,52,3.90
2014,03,05,01,53,3.90
2014,03,05,01,54,3.90
2014,03,05,01,55,3.90
2014,03,05,01,56,3.90
2014,03,05,01,57,3.90
2014,03,05,01,58,4.00
2014,03,05,01,59,4.00
2014,03,05,02,00,4.00
2014,03,05,02,01,4.00
2014,03,05,02,02,4.00
2014,03,05,02,03,4.00
2014,03,05,02,04,4.00
2014,03,05,02,05,4.00
2014,03,05,02,06,4.00
2014,03,05,02,07,4.00
2014,03,05,02,08,4.00
2014,03,05,02,09,4.00
2014,03,05,02,10,4.00
2014,03,05,02,11,4.00
2014,03,05,02,12,4.00
2014,03,05,02,13,4.00
2014,03,05,02,14,4.00
2014,03,05,02,15,4.00
2014,03,05,02,16,4.00
2014,03,05,02,17,3.90
2014,03,05,02,18,4.00
2014,03,05,02,19,3.90
2014,03,05,02,20,3.90
2014,03,05,02,21,3.90
2014,03,05,02,22,3.90
2014,03,05,02,23,4.00
2014,03,05,02,24,4.00
2014,03,05,02,25,4.00
2014,03,05,02,26,4.00
2014,03,05,02,27,4.00
2014,03,05,02,28,4.00
2014,03,05,02,29,4.00
2014,03,05,02,30,4.00
2014,03,05,02,31,4.00
2014,03,05,02,32,4.00
2014,03,05,02,33,4.00
2014,03,05,02,34,4.00
2014,03,05,02,35,4.00
2014,03,05,02,36,4.00
2014,03,05,02,37,4.00
2014,03,05,02,38,4.00
2014,03,05,02,39,4.00
2014,03,05,02,40,4.00
2014,03,05,02,41,4.00
2014,03,05,02,42,4.00
2014,03,05,02,43,4.00
2014,03,05,02,44,4.00
2014,03,05,02,45,4.00
2014,03,05,02,46,4.00
2014,03,05,02,47,4.10
2014,03,05,02,48,4.00
2014,03,05,02,49,4.00
2014,03,05,02,50,4.00
2014,03,05,02,51,4.00
2014,03,05,02,52,4.00
2014,03,05,02,53,4.00
2014,03,05,02,54,4.00
2014,03,05,02,55,4.00
2014,03,05,02,56,4.00
2014,03,05,02,57,4.00
2014,03,05,02,58,4.10
2014,03,05,02,59,4.10
2014,03,05,03,00,4.10
2014,03,05,03,01,4.10
2014,03,05,03,02,4.10
2014,03,05,03,03,4.10
2014,03,05,03,04,4.10
2014,03,05,03,05,4.10
2014,03,05,03,06,4.10
2014,03,05,03,07,4.10
2014,03,05,03,08,4.10
2014,03,05,03,09,4.10
2014,03,05,03,10,4.10
2014,03,05,03,11,4.10
2014,03,05,03,12,4.10
2014,03,05,03,13,4.10
2014,03,05,03,14,4.10
2014,03,05,03,15,4.10
2014,03,05,03,16,4.10
2014,03,05,03,17,4.10
2014,03,05,03,18,4.10
2014,03,05,03,19,4.10
2014,03,05,03,20,4.20
2014,03,05,03,21,4.20
2014,03,05,03,22,4.20
2014,03,05,03,23,4.20
2014,03,05,03,24,4.20
2014,03,05,03,25,4.20
2014,03,05,03,26,4.20
2014,03,05,03,27,4.20
2014,03,05,03,28,4.20
2014,03,05,03,29,4.20
2014,03,05,03,30,4.20
2014,03,05,03,31,4.20
2014,03,05,03,32,4.20
2014,03,05,03,33,4.20
2014,03,05,03,34,4.20
2014,03,05,03,35,4.20
2014,03,05,03,36,4.20
2014,03,05,03,37,4.20
2014,03,05,03,38,4.20
2014,03,05,03,39,4.20
2014,03,05,03,40,4.20
2014,03,05,03,41,4.20
2014,03,05,03,42,4.20
2014,03,05,03,43,4.20
2014,03,05,03,44,4.20
2014,03,05,03,45,4.20
2014,03,05,03,46,4.20
2014,03,05,03,47,4.20
2014,03,05,03,48,4.20
2014,03,05,03,49,4.20
2014,03,05,03,50,4.20
2014,03,05,03,51,4.20
2014,03,05,03,52,4.20
2014,03,05,03,53,4.20
2014,03,05,03,54,4.20
2014,03,05,03,55,4.20
2014,03,05,03,56,4.20
2014,03,05,03,57,4.20
2014,03,05,03,58,4.20
2014,03,05,03,59,4.20
2014,03,05,04,00,4.20
2014,03,05,04,01,4.20
2014,03,05,04,02,4.20
2014,03,05,04,03,4.20
2014,03,05,04,04,4.20
2014,03,05,04,05,4.20
2014,03,05,04,06,4.20
2014,03,05,04,07,4.20
2014,03,05,04,08,4.20
2014,03,05,04,09,4.20
2014,03,05,04,10,4.20
2014,03,05,04,11,4.20
2014,03,05,04,12,4.20
2014,03,05,04,13,4.20
2014,03,05,04,14,4.20
2014,03,05,04,15,4.20
2014,03,05,04,16,4.20
2014,03,05,04,17,4.20
2014,03,05,04,18,4.20
2014,03,05,04,19,4.20
2014,03,05,04,20,4.20
2014,03,05,04,21,4.20
2014,03,05,04,22,4.20
2014,03,05,04,23,4.20
2014,03,05,04,24,4.20
2014,03,05,04,25,4.20
2014,03,05,04,26,4.20
2014,03,05,04,27,4.20
2014,03,05,04,28,4.20
2014,03,05,04,29,4.20
2014,03,05,04,30,4.20
2014,03,05,04,31,4.20
2014,03,05,04,32,4.30
2014,03,05,04,33,4.30
2014,03,05,04,34,4.30
2014,03,05,04,35,4.30
2014,03,05,04,36,4.30
2014,03,05,04,37,4.30
2014,03,05,04,38,4.30
2014,03,05,04,39,4.30
2014,03,05,04,40,4.30
2014,03,05,04,41,4.30
2014,03,05,04,42,4.30
2014,03,05,04,43,4.40
2014,03,05,04,44,4.40
2014,03,05,04,45,4.40
2014,03,05,04,46,4.40
2014,03,05,04,47,4.40
2014,03,05,04,48,4.40
2014,03,05,04,49,4.30
2014,03,05,04,50,4.30
2014,03,05,04,51,4.30
2014,03,05,04,52,4.30
2014,03,05,04,53,4.30
2014,03,05,04,54,4.30
2014,03,05,04,55,4.30
2014,03,05,04,56,4.30
2014,03,05,04,57,4.30
2014,03,05,04,58,4.30
2014,03,05,04,59,4.30
2014,03,05,05,00,4.30
2014,03,05,05,01,4.30
2014,03,05,05,02,4.30
2014,03,05,05,03,4.30
2014,03,05,05,04,4.30
2014,03,05,05,05,4.30
2014,03,05,05,06,4.30
2014,03,05,05,07,4.30
2014,03,05,05,08,4.30
2014,03,05,05,09,4.30
2014,03,05,05,10,4.30
2014,03,05,05,11,4.30
2014,03,05,05,12,4.30
2014,03,05,05,13,4.30
2014,03,05,05,14,4.30
2014,03,05,05,15,4.30
2014,03,05,05,16,4.30
2014,03,05,05,17,4.30
2014,03,05,05,18,4.30
2014,03,05,05,19,4.40
2014,03,05,05,20,4.40
2014,03,05,05,21,4.40
2014,03,05,05,22,4.40
2014,03,05,05,23,4.40
2014,03,05,05,24,4.40
2014,03,05,05,25,4.40
2014,03,05,05,26,4.40
2014,03,05,05,27,4.40
2014,03,05,05,28,4.40
2014,03,05,05,29,4.40
2014,03,05,05,30,4.50
2014,03,05,05,31,4.50
2014,03,05,05,32,4.50
2014,03,05,05,33,4.50
2014,03,05,05,34,4.60
2014,03,05,05,35,4.60
2014,03,05,05,36,4.60
2014,03,05,05,37,4.60
2014,03,05,05,38,4.70
2014,03,05,05,39,4.70
2014,03,05,05,40,4.70
2014,03,05,05,41,4.70
2014,03,05,05,42,4.70
2014,03,05,05,43,4.80
2014,03,05,05,44,4.80
2014,03,05,05,45,4.80
2014,03,05,05,46,4.80
2014,03,05,05,47,4.80
2014,03,05,05,48,4.80
2014,03,05,05,49,4.80
2014,03,05,05,50,4.80
2014,03,05,05,51,4.80
2014,03,05,05,52,4.80
2014,03,05,05,53,4.80
2014,03,05,05,54,4.80
2014,03,05,05,55,4.80
2014,03,05,05,56,4.80
2014,03,05,05,57,4.80
2014,03,05,05,58,4.80
2014,03,05,05,59,4.80
2014,03,05,06,00,4.80
2014,03,05,06,01,4.80
2014,03,05,06,02,4.80
2014,03,05,06,03,4.80
2014,03,05,06,04,4.70
2014,03,05,06,05,4.70
2014,03,05,06,06,4.70
2014,03,05,06,07,4.70
2014,03,05,06,08,4.70
2014,03,05,06,09,4.60
2014,03,05,06,10,4.60
2014,03,05,06,11,4.60
2014,03,05,06,12,4.60
2014,03,05,06,13,4.60
2014,03,05,06,14,4.60
2014,03,05,06,15,4.60
2014,03,05,06,16,4.60
2014,03,05,06,17,4.60
2014,03,05,06,18,4.60
2014,03,05,06,19,4.60
2014,03,05,06,20,4.60
2014,03,05,06,21,4.60
2014,03,05,06,22,4.60
2014,03,05,06,23,4.60
2014,03,05,06,24,4.60
2014,03,05,06,25,4.60
2014,03,05,06,26,4.60
2014,03,05,06,27,4.60
2014,03,05,06,28,4.60
2014,03,05,06,29,4.60
2014,03,05,06,30,4.60
2014,03,05,06,31,4.60
2014,03,05,06,32,4.60
2014,03,05,06,33,4.60
2014,03,05,06,34,4.60
2014,03,05,06,35,4.60
2014,03,05,06,36,4.60
2014,03,05,06,37,4.60
2014,03,05,06,38,4.60
2014,03,05,06,39,4.60
2014,03,05,06,40,4.70
2014,03,05,06,41,4.70
2014,03,05,06,42,4.70
2014,03,05,06,43,4.70
2014,03,05,06,44,4.70
2014,03,05,06,45,4.70
2014,03,05,06,46,4.70
2014,03,05,06,47,4.70
2014,03,05,06,48,4.70
2014,03,05,06,49,4.70
2014,03,05,06,50,4.70
2014,03,05,06,51,4.70
2014,03,05,06,52,4.70
2014,03,05,06,53,4.70
2014,03,05,06,54,4.70
2014,03,05,06,55,4.70
2014,03,05,06,56,4.70
2014,03,05,06,57,4.70
2014,03,05,06,58,4.70
2014,03,05,06,59,4.70
2014,03,05,07,00,4.70
2014,03,05,07,01,4.70
2014,03,05,07,02,4.70
2014,03,05,07,03,4.70
2014,03,05,07,04,4.70
2014,03,05,07,05,4.70
2014,03,05,07,06,4.70
2014,03,05,07,07,4.70
2014,03,05,07,08,4.70
2014,03,05,07,09,4.70
2014,03,05,07,10,4.80
2014,03,05,07,11,4.80
2014,03,05,07,12,4.80
2014,03,05,07,13,4.80
2014,03,05,07,14,4.80
2014,03,05,07,15,4.80
2014,03,05,07,16,4.80
2014,03,05,07,17,4.80
2014,03,05,07,18,4.90
2014,03,05,07,19,4.90
2014,03,05,07,20,4.90
2014,03,05,07,21,4.90
2014,03,05,07,22,4.90
2014,03,05,07,23,4.90
2014,03,05,07,24,4.90
2014,03,05,07,25,4.90
2014,03,05,07,26,4.90
2014,03,05,07,27,4.90
2014,03,05,07,28,4.90
2014,03,05,07,29,4.90
2014,03,05,07,30,4.90
2014,03,05,07,31,4.90
2014,03,05,07,32,4.90
2014,03,05,07,33,4.90
2014,03,05,07,34,4.90
2014,03,05,07,35,4.90
2014,03,05,07,36,4.90
2014,03,05,07,37,4.90
2014,03,05,07,38,4.90
2014,03,05,07,39,4.90
2014,03,05,07,40,4.90
2014,03,05,07,41,4.90
2014,03,05,07,42,5.00
2014,03,05,07,43,4.90
2014,03,05,07,44,5.00
2014,03,05,07,45,5.00
2014,03,05,07,46,5.00
2014,03,05,07,47,5.00
2014,03,05,07,48,5.00
2014,03,05,07,49,5.00
2014,03,05,07,50,5.00
2014,03,05,07,51,5.10
2014,03,05,07,52,5.10
2014,03,05,07,53,5.10
2014,03,05,07,54,5.10
2014,03,05,07,55,5.10
2014,03,05,07,56,5.10
2014,03,05,07,57,5.10
2014,03,05,07,58,5.10
2014,03,05,07,59,5.10
2014,03,05,08,00,5.10
2014,03,05,08,01,5.10
2014,03,05,08,02,5.10
2014,03,05,08,03,5.10
2014,03,05,08,04,5.10
2014,03,05,08,05,5.10
2014,03,05,08,06,5.20
2014,03,05,08,07,5.20
2014,03,05,08,08,5.20
2014,03,05,08,09,5.20
2014,03,05,08,10,5.30
2014,03,05,08,11,5.30
2014,03,05,08,12,5.30
2014,03,05,08,13,5.30
2014,03,05,08,14,5.30
2014,03,05,08,15,5.30
2014,03,05,08,16,5.30
2014,03,05,08,17,5.30
2014,03,05,08,18,5.30
2014,03,05,08,19,5.30
2014,03,05,08,20,5.30
2014,03,05,08,21,5.30
2014,03,05,08,22,5.30
2014,03,05,08,23,5.40
2014,03,05,08,24,5.40
2014,03,05,08,25,5.40
2014,03,05,08,26,5.40
2014,03,05,08,27,5.40
2014,03,05,08,28,5.40
2014,03,05,08,29,5.40
2014,03,05,08,30,5.40
2014,03,05,08,31,5.40
2014,03,05,08,32,5.50
2014,03,05,08,33,5.50
2014,03,05,08,34,5.60
2014,03,05,08,35,5.60
2014,03,05,08,36,5.60
2014,03,05,08,37,5.60
2014,03,05,08,38,5.60
2014,03,05,08,39,5.70
2014,03,05,08,40,5.70
2014,03,05,08,41,5.70
2014,03,05,08,42,5.70
2014,03,05,08,43,5.70
2014,03,05,08,44,5.70
2014,03,05,08,45,5.70
2014,03,05,08,46,5.70
2014,03,05,08,47,5.80
2014,03,05,08,48,5.80
2014,03,05,08,49,5.80
2014,03,05,08,50,5.80
2014,03,05,08,51,5.80
2014,03,05,08,52,5.90
2014,03,05,08,53,5.90
2014,03,05,08,54,5.90
2014,03,05,08,55,5.90
2014,03,05,08,56,5.90
2014,03,05,08,57,6.00
2014,03,05,08,58,6.00
2014,03,05,08,59,6.10
2014,03,05,09,00,6.10
2014,03,05,09,01,6.10
2014,03,05,09,02,6.20
2014,03,05,09,03,6.20
2014,03,05,09,04,6.20
2014,03,05,09,05,6.20
2014,03,05,09,06,6.20
2014,03,05,09,07,6.30
2014,03,05,09,08,6.30
2014,03,05,09,09,6.40
2014,03,05,09,10,6.40
2014,03,05,09,11,6.40
2014,03,05,09,12,6.40
2014,03,05,09,13,6.40
2014,03,05,09,14,6.40
2014,03,05,09,15,6.40
2014,03,05,09,16,6.40
2014,03,05,09,17,6.40
2014,03,05,09,18,6.40
2014,03,05,09,19,6.40
2014,03,05,09,20,6.50
2014,03,05,09,21,6.50
2014,03,05,09,22,6.60
2014,03,05,09,23,6.60
2014,03,05,09,24,6.60
2014,03,05,09,25,6.60
2014,03,05,09,26,6.70
2014,03,05,09,27,6.70
2014,03,05,09,28,6.80
2014,03,05,09,29,6.90
2014,03,05,09,30,6.90
2014,03,05,09,31,7.00
2014,03,05,09,32,7.20
2014,03,05,09,33,7.30
2014,03,05,09,34,7.40
2014,03,05,09,35,7.40
2014,03,05,09,36,7.50
2014,03,05,09,37,7.60
2014,03,05,09,38,7.70
2014,03,05,09,39,7.70
2014,03,05,09,40,7.80
2014,03,05,09,41,7.80
2014,03,05,09,42,7.80
2014,03,05,09,43,7.80
2014,03,05,09,44,7.80
2014,03,05,09,45,7.80
2014,03,05,09,46,7.90
2014,03,05,09,47,7.90
2014,03,05,09,48,7.90
2014,03,05,09,49,7.90
2014,03,05,09,50,7.90
2014,03,05,09,51,7.90
2014,03,05,09,52,7.90
2014,03,05,09,53,8.00
2014,03,05,09,54,8.00
2014,03,05,09,55,8.00
2014,03,05,09,56,8.00
2014,03,05,09,57,8.10
2014,03,05,09,58,8.10
2014,03,05,09,59,8.10
2014,03,05,10,00,8.10
2014,03,05,10,01,8.10
2014,03,05,10,02,8.20
2014,03,05,10,03,8.20
2014,03,05,10,04,8.20
2014,03,05,10,05,8.30
2014,03,05,10,06,8.40
2014,03,05,10,07,8.50
2014,03,05,10,08,8.60
2014,03,05,10,09,8.60
2014,03,05,10,10,8.60
2014,03,05,10,11,8.60
2014,03,05,10,12,8.60
2014,03,05,10,13,8.70
2014,03,05,10,14,8.70
2014,03,05,10,15,8.80
2014,03,05,10,16,8.80
2014,03,05,10,17,8.90
2014,03,05,10,18,8.90
2014,03,05,10,19,9.00
2014,03,05,10,20,9.00
2014,03,05,10,21,9.10
2014,03,05,10,22,9.20
2014,03,05,10,23,9.30
2014,03,05,10,24,9.50
2014,03,05,10,25,9.70
2014,03,05,10,26,9.90
2014,03,05,10,27,10.00
2014,03,05,10,28,10.20
2014,03,05,10,29,10.30
2014,03,05,10,30,10.40
2014,03,05,10,31,10.40
2014,03,05,10,32,10.50
2014,03,05,10,33,10.60
2014,03,05,10,34,10.70
2014,03,05,10,35,10.80
2014,03,05,10,36,10.90
2014,03,05,10,37,10.90
2014,03,05,10,38,11.00
2014,03,05,10,39,11.10
2014,03,05,10,40,11.10
2014,03,05,10,41,11.20
2014,03,05,10,42,11.20
2014,03,05,10,43,11.30
2014,03,05,10,44,11.40
2014,03,05,10,45,11.40
2014,03,05,10,46,11.50
2014,03,05,10,47,11.50
2014,03,05,10,48,11.60
2014,03,05,10,49,11.70
2014,03,05,10,50,11.80
2014,03,05,10,51,11.80
2014,03,05,10,52,11.90
2014,03,05,10,53,11.90
2014,03,05,10,54,11.90
2014,03,05,10,55,12.00
2014,03,05,10,56,12.10
2014,03,05,10,57,12.20
2014,03,05,10,58,12.20
2014,03,05,10,59,12.20
2014,03,05,11,00,12.20
2014,03,05,11,01,12.20
2014,03,05,11,02,12.30
2014,03,05,11,03,12.30
2014,03,05,11,04,12.40
2014,03,05,11,05,12.40
2014,03,05,11,06,12.40
2014,03,05,11,07,12.40
2014,03,05,11,08,12.50
2014,03,05,11,09,12.50
2014,03,05,11,10,12.60
2014,03,05,11,11,12.60
2014,03,05,11,12,12.70
2014,03,05,11,13,12.70
2014,03,05,11,14,12.80
2014,03,05,11,15,12.90
2014,03,05,11,16,12.90
2014,03,05,11,17,13.00
2014,03,05,11,18,13.10
2014,03,05,11,19,13.10
2014,03,05,11,20,13.10
2014,03,05,11,21,13.10
2014,03,05,11,22,13.20
2014,03,05,11,23,13.20
2014,03,05,11,24,13.20
2014,03,05,11,25,13.20
2014,03,05,11,26,13.20
2014,03,05,11,27,13.20
2014,03,05,11,28,13.20
2014,03,05,11,29,13.20
2014,03,05,11,30,13.10
2014,03,05,11,31,13.00
2014,03,05,11,32,13.00
2014,03,05,11,33,13.00
2014,03,05,11,34,13.10
2014,03,05,11,35,13.20
2014,03,05,11,36,13.20
2014,03,05,11,37,13.30
2014,03,05,11,38,13.30
2014,03,05,11,39,13.40
2014,03,05,11,40,13.30
2014,03,05,11,41,13.40
2014,03,05,11,42,13.40
2014,03,05,11,43,13.40
2014,03,05,11,44,13.40
2014,03,05,11,45,13.40
2014,03,05,11,46,13.40
2014,03,05,11,47,13.40
2014,03,05,11,48,13.30
2014,03,05,11,49,13.10
2014,03,05,11,50,13.00
2014,03,05,11,51,12.90
2014,03,05,11,52,12.80
2014,03,05,11,53,12.80
2014,03,05,11,54,12.70
2014,03,05,11,55,12.70
2014,03,05,11,56,12.60
2014,03,05,11,57,12.60
2014,03,05,11,58,12.70
2014,03,05,11,59,12.70
2014,03,05,12,00,12.80
2014,03,05,12,01,12.80
2014,03,05,12,02,12.90
2014,03,05,12,03,12.90
2014,03,05,12,04,13.00
2014,03,05,12,05,13.00
2014,03,05,12,06,13.10
2014,03,05,12,07,13.10
2014,03,05,12,08,13.00
2014,03,05,12,09,12.90
2014,03,05,12,10,12.90
2014,03,05,12,11,12.80
2014,03,05,12,12,12.70
2014,03,05,12,13,12.50
2014,03,05,12,14,12.30
2014,03,05,12,15,12.00
2014,03,05,12,16,11.70
2014,03,05,12,17,11.40
2014,03,05,12,18,11.10
2014,03,05,12,19,11.00
2014,03,05,12,20,10.70
2014,03,05,12,21,10.50
2014,03,05,12,22,10.20
2014,03,05,12,23,9.90
2014,03,05,12,24,9.70
2014,03,05,12,25,9.50
2014,03,05,12,26,9.20
2014,03,05,12,27,9.00
2014,03,05,12,28,8.90
2014,03,05,12,29,8.80
2014,03,05,12,30,8.80
2014,03,05,12,31,8.70
2014,03,05,12,32,8.70
2014,03,05,12,33,8.70
2014,03,05,12,34,8.70
2014,03,05,12,35,8.70
2014,03,05,12,36,8.60
2014,03,05,12,37,8.60
2014,03,05,12,38,8.50
2014,03,05,12,39,8.50
2014,03,05,12,40,8.50
2014,03,05,12,41,8.50
2014,03,05,12,42,8.40
2014,03,05,12,43,8.40
2014,03,05,12,44,8.40
2014,03,05,12,45,8.40
2014,03,05,12,46,8.40
2014,03,05,12,47,8.40
2014,03,05,12,48,8.50
2014,03,05,12,49,8.50
2014,03,05,12,50,8.50
2014,03,05,12,51,8.50
2014,03,05,12,52,8.40
2014,03,05,12,53,8.40
2014,03,05,12,54,8.40
2014,03,05,12,55,8.30
2014,03,05,12,56,8.30
2014,03,05,12,57,8.30
2014,03,05,12,58,8.30
2014,03,05,12,59,8.40
2014,03,05,13,00,8.40
2014,03,05,13,01,8.40
2014,03,05,13,02,8.50
2014,03,05,13,03,8.50
2014,03,05,13,04,8.50
2014,03,05,13,05,8.50
2014,03,05,13,06,8.50
2014,03,05,13,07,8.50
2014,03,05,13,08,8.50
2014,03,05,13,09,8.50
2014,03,05,13,10,8.50
2014,03,05,13,11,8.50
2014,03,05,13,12,8.50
2014,03,05,13,13,8.50
2014,03,05,13,14,8.60
2014,03,05,13,15,8.60
2014,03,05,13,16,8.60
2014,03,05,13,17,8.70
2014,03,05,13,18,8.70
2014,03,05,13,19,8.70
2014,03,05,13,20,8.70
2014,03,05,13,21,8.70
2014,03,05,13,22,8.70
2014,03,05,13,23,8.80
2014,03,05,13,24,9.00
2014,03,05,13,25,9.10
2014,03,05,13,26,9.20
2014,03,05,13,27,9.40
2014,03,05,13,28,9.50
2014,03,05,13,29,9.60
2014,03,05,13,30,9.70
2014,03,05,13,31,9.70
2014,03,05,13,32,9.70
2014,03,05,13,33,9.80
2014,03,05,13,34,9.80
2014,03,05,13,35,9.80
2014,03,05,13,36,9.80
2014,03,05,13,37,9.80
2014,03,05,13,38,9.80
2014,03,05,13,39,9.90
2014,03,05,13,40,9.90
2014,03,05,13,41,9.90
2014,03,05,13,42,9.80
2014,03,05,13,43,9.80
2014,03,05,13,44,9.80
2014,03,05,13,45,9.90
2014,03,05,13,46,9.90
2014,03,05,13,47,9.90
2014,03,05,13,48,9.90
2014,03,05,13,49,10.00
2014,03,05,13,50,10.00
2014,03,05,13,51,10.10
2014,03,05,13,52,10.10
2014,03,05,13,53,10.00
2014,03,05,13,54,10.00
2014,03,05,13,55,10.00
2014,03,05,13,56,9.90
2014,03,05,13,57,9.90
2014,03,05,13,58,9.80
2014,03,05,13,59,9.80
2014,03,05,14,00,9.70
2014,03,05,14,01,9.70
2014,03,05,14,02,9.70
2014,03,05,14,03,9.70
2014,03,05,14,04,9.70
2014,03,05,14,05,9.70
2014,03,05,14,06,9.60
2014,03,05,14,07,9.60
2014,03,05,14,08,9.60
2014,03,05,14,09,9.60
2014,03,05,14,10,9.60
2014,03,05,14,11,9.70
2014,03,05,14,12,9.70
2014,03,05,14,13,9.70
2014,03,05,14,14,9.70
2014,03,05,14,15,9.70
2014,03,05,14,16,9.70
2014,03,05,14,17,9.70
2014,03,05,14,18,9.70
2014,03,05,14,19,9.70
2014,03,05,14,20,9.70
2014,03,05,14,21,9.70
2014,03,05,14,22,9.80
2014,03,05,14,23,9.80
2014,03,05,14,24,9.80
2014,03,05,14,25,9.80
2014,03,05,14,26,9.90
2014,03,05,14,27,9.90
2014,03,05,14,28,9.90
2014,03,05,14,29,9.90
2014,03,05,14,30,10.00
2014,03,05,14,31,10.00
2014,03,05,14,32,10.00
2014,03,05,14,33,10.00
2014,03,05,14,34,10.00
2014,03,05,14,35,10.00
2014,03,05,14,36,10.00
2014,03,05,14,37,10.00
2014,03,05,14,38,10.00
2014,03,05,14,39,10.00
2014,03,05,14,40,10.00
2014,03,05,14,41,10.10
2014,03,05,14,42,10.10
2014,03,05,14,43,10.10
2014,03,05,14,44,10.10
2014,03,05,14,45,10.10
2014,03,05,14,46,10.10
2014,03,05,14,47,10.10
2014,03,05,14,48,10.10
2014,03,05,14,49,10.10
2014,03,05,14,50,10.20
2014,03,05,14,51,10.20
2014,03,05,14,52,10.20
2014,03,05,14,53,10.20
2014,03,05,14,54,10.30
2014,03,05,14,55,10.30
2014,03,05,14,56,10.30
2014,03,05,14,57,10.40
2014,03,05,14,58,10.40
2014,03,05,14,59,10.40
2014,03,05,15,00,10.50
2014,03,05,15,01,10.50
2014,03,05,15,02,10.60
2014,03,05,15,03,10.60
2014,03,05,15,04,10.70
2014,03,05,15,05,10.70
2014,03,05,15,06,10.70
2014,03,05,15,07,10.60
2014,03,05,15,08,10.60
2014,03,05,15,09,10.60
2014,03,05,15,10,10.50
2014,03,05,15,11,10.50
2014,03,05,15,12,10.50
2014,03,05,15,13,10.50
2014,03,05,15,14,10.50
2014,03,05,15,15,10.40
2014,03,05,15,16,10.40
2014,03,05,15,17,10.40
2014,03,05,15,18,10.40
2014,03,05,15,19,10.30
2014,03,05,15,20,10.30
2014,03,05,15,21,10.30
2014,03,05,15,22,10.30
2014,03,05,15,23,10.30
2014,03,05,15,24,10.30
2014,03,05,15,25,10.30
2014,03,05,15,26,10.30
2014,03,05,15,27,10.30
2014,03,05,15,28,10.30
2014,03,05,15,29,10.30
2014,03,05,15,30,10.30
2014,03,05,15,31,10.30
2014,03,05,15,32,10.30
2014,03,05,15,33,10.40
2014,03,05,15,34,10.40
2014,03,05,15,35,10.40
2014,03,05,15,36,10.40
2014,03,05,15,37,10.40
2014,03,05,15,38,10.40
2014,03,05,15,39,10.50
2014,03,05,15,40,10.50
2014,03,05,15,41,10.50
2014,03,05,15,42,10.60
2014,03,05,15,43,10.60
2014,03,05,15,44,10.60
2014,03,05,15,45,10.50
2014,03,05,15,46,10.60
2014,03,05,15,47,10.60
2014,03,05,15,48,10.60
2014,03,05,15,49,10.60
2014,03,05,15,50,10.60
2014,03,05,15,51,10.60
2014,03,05,15,52,10.60
2014,03,05,15,53,10.60
2014,03,05,15,54,10.60
2014,03,05,15,55,10.60
2014,03,05,15,56,10.60
2014,03,05,15,57,10.60
2014,03,05,15,58,10.60
2014,03,05,15,59,10.60
2014,03,05,16,00,10.60
2014,03,05,16,01,10.60
2014,03,05,16,02,10.60
2014,03,05,16,03,10.60
2014,03,05,16,04,10.60
2014,03,05,16,05,10.60
2014,03,05,16,06,10.50
2014,03,05,16,07,10.50
2014,03,05,16,08,10.50
2014,03,05,16,09,10.50
2014,03,05,16,10,10.40
2014,03,05,16,11,10.40
2014,03,05,16,12,10.40
2014,03,05,16,13,10.40
2014,03,05,16,14,10.40
2014,03,05,16,15,10.50
2014,03,05,16,16,10.50
2014,03,05,16,17,10.50
2014,03,05,16,18,10.50
2014,03,05,16,19,10.50
2014,03,05,16,20,10.40
2014,03,05,16,21,10.40
2014,03,05,16,22,10.50
2014,03,05,16,23,10.50
2014,03,05,16,24,10.40
2014,03,05,16,25,10.40
2014,03,05,16,26,10.40
2014,03,05,16,27,10.40
2014,03,05,16,28,10.40
2014,03,05,16,29,10.40
2014,03,05,16,30,10.40
2014,03,05,16,31,10.50
2014,03,05,16,32,10.50
2014,03,05,16,33,10.50
2014,03,05,16,34,10.50
2014,03,05,16,35,10.50
2014,03,05,16,36,10.50
2014,03,05,16,37,10.50
2014,03,05,16,38,10.50
2014,03,05,16,39,10.60
2014,03,05,16,40,10.60
2014,03,05,16,41,10.60
2014,03,05,16,42,10.60
2014,03,05,16,43,10.60
2014,03,05,16,44,10.60
2014,03,05,16,45,10.60
2014,03,05,16,46,10.60
2014,03,05,16,47,10.60
2014,03,05,16,48,10.60
2014,03,05,16,49,10.60
2014,03,05,16,50,10.60
2014,03,05,16,51,10.60
2014,03,05,16,52,10.60
2014,03,05,16,53,10.60
2014,03,05,16,54,10.60
2014,03,05,16,55,10.60
2014,03,05,16,56,10.60
2014,03,05,16,57,10.60
2014,03,05,16,58,10.60
2014,03,05,16,59,10.60
2014,03,05,17,00,10.60
2014,03,05,17,01,10.60
2014,03,05,17,02,10.60
2014,03,05,17,03,10.60
2014,03,05,17,04,10.60
2014,03,05,17,05,10.60
2014,03,05,17,06,10.60
2014,03,05,17,07,10.60
2014,03,05,17,08,10.60
2014,03,05,17,09,10.60
2014,03,05,17,10,10.60
2014,03,05,17,11,10.60
2014,03,05,17,12,10.60
2014,03,05,17,13,10.60
2014,03,05,17,14,10.60
2014,03,05,17,15,10.50
2014,03,05,17,16,10.50
2014,03,05,17,17,10.50
2014,03,05,17,18,10.50
2014,03,05,17,19,10.50
2014,03,05,17,20,10.50
2014,03,05,17,21,10.40
2014,03,05,17,22,10.40
2014,03,05,17,23,10.40
2014,03,05,17,24,10.40
2014,03,05,17,25,10.40
2014,03,05,17,26,10.40
2014,03,05,17,27,10.40
2014,03,05,17,28,10.40
2014,03,05,17,29,10.40
2014,03,05,17,30,10.40
2014,03,05,17,31,10.40
2014,03,05,17,32,10.40
2014,03,05,17,33,10.40
2014,03,05,17,34,10.40
2014,03,05,17,35,10.40
2014,03,05,17,36,10.40
2014,03,05,17,37,10.40
2014,03,05,17,38,10.40
2014,03,05,17,39,10.30
2014,03,05,17,40,10.30
2014,03,05,17,41,10.30
2014,03,05,17,42,10.30
2014,03,05,17,43,10.30
2014,03,05,17,44,10.30
2014,03,05,17,45,10.30
2014,03,05,17,46,10.30
2014,03,05,17,47,10.30
2014,03,05,17,48,10.30
2014,03,05,17,49,10.30
2014,03,05,17,50,10.20
2014,03,05,17,51,10.20